Location: Marcé
(47.5801°N, 0.3280°W)
Time: 18:28:49
(UTC+01:00)

Tiros 1 - Pass Details

Date: 30 November 2021
Orbit: 629 x 664 km, 48.4° (Epoch: 26 January)

Event Time Altitude Azimuth Distance (km) Brightness Sun altitude
Rises 03:48:56 0° 282° (WNW) 2,978 - -45.9°
Reaches altitude 10° 03:51:59 10° 263° (W) 2,069 - -45.4°
Maximum altitude 03:55:01 17° 223° (SW) 1,654 - -44.9°
Drops below altitude 10° 03:58:04 10° 183° (S) 2,070 - -44.4°
Sets 04:01:07 0° 163° (SSE) 2,981 - -43.9°
